www.pogodaiklimat.ru

Погода и климат >> Архив погоды >> Хорватия >> Било-Гора


ПОГОДА на Било-Горе

  • Прогноз погоды на Било-Горе
  • Монитор погоды на Било-Горе

АРХИВ ПОГОДЫ на Било-Горе

Время (UTC), дата Ветер
(напр.,м/с)
 
Видим.   Явления Облачность Т
(С)
Тd
(С)
f
(%)
Тe
(С)
Тes
(С)
Комфортность P
(гПа)
Po
(гПа)
Тmin
(С)
Tmax
(С)
R
(мм)
R24
(мм)
S
(см)
00 16.08 Ю 1 25 км ясно +16.4 +9.7 65 +17 +17 1016.8 986.0
03 16.08 ЮЗ 2 25 км 4/3 1000 м
[Sc Ci fib]
+15.5 +10.4 72 +15 +15 1016.8 985.9
04 16.08 ЮЗ 2 25 км 3/0
[Ac trans]
+15.8 +10.0 68 +16 +16 1016.7 985.9
05 16.08 З 3 40 км 4/1 1000 м
[Sc Ac trans]
+15.6 +11.3 76 +15 +16 1017.3 986.4
06 16.08 ЮЗ 3 40 км 5/3 600 м
[Sc Ac trans]
+16.0 +11.6 75 +16 +17 1017.2 986.4 +15.3
07 16.08 З 3 40 км 5/3 600 м
[Sc Ac trans]
+17.5 +13.9 79 +18 +20 1017.5 986.9
08 16.08 З 2 40 км 6/3 600 м
[Sc Ac und Ci sp]
+19.8 +13.5 67 +22 +28 комфорт 1017.5 987.1
09 16.08 СЗ 3 40 км 10/6 600 м
[Cu Sc Ac As]
+21.0 +14.3 66 +24 +26 комфорт 1017.8 987.5
10 16.08 СЗ 5 30 км 10/4 600 м
[Cu Sc Ac As]
+20.4 +14.3 68 +23 +24 комфорт 1018.2 987.8
11 16.08 СЗ 5 20 км 10/5 600 м
[Cu Sc Ac As]
+19.6 +14.8 74 +21 +22 комфорт 1018.2 987.8
12 16.08 СЗ 3 20 км 9/4 600 м
[Cu Sc Ac As]
+20.0 +14.9 72 +23 +26 комфорт 1018.1 987.7
13 16.08 СЗ 3 25 км 8/3 600 м
[Cu Sc Ac trans]
+20.8 +15.8 73 +24 +28 комфорт 1018.0 987.7
14 16.08 СЗ 2 40 км 5/3 600 м
[Cu med, cong Ac trans]
+22.5 +15.8 66 +27 +32 душно 1017.4 987.3
15 16.08 С 2 50 км 4/3 600 м
[Cu med, cong Ac trans]
+23.3 +13.7 55 +27 +30 душно 1017.0 987.0
16 16.08 С 1 50 км 3/3 600 м
[Cu hum]
+23.0 +14.3 58 +27 +28 душно 1017.1 987.0
17 16.08 СВ 2 40 км 3/1 600 м
[Cu hum Ac trans]
+22.6 +14.0 58 +26 +26 жарко 1016.9 986.8
18 16.08 С 1 40 км 3/0
[Ac trans]
+21.0 +13.6 63 +25 +25 комфорт 1017.2 986.9 +23.5
19 16.08 штиль 0 30 км 3/0
[Ac trans]
+20.2 +13.2 64 +22 +22 комфорт 1017.8 987.4
20 16.08 штиль 0 30 км ясно +20.1 +12.9 63 +22 +22 комфорт 1018.1 987.7
21 16.08 ЮЗ 2 30 км ясно +19.3 +13.1 67 +21 +21 комфорт 1018.3 987.8
00 17.08 З 3 20 км ясно +18.3 +12.8 70 +19 +19 1018.2 987.6
03 17.08 ЮЗ 2 20 км ясно +15.0 +13.6 91 +15 +15 1018.0 987.1
04 17.08 ЮЗ 2 20 км ясно +14.7 +12.7 88 +14 +14 1018.1 987.1
05 17.08 ЮЗ 2 25 км ясно +14.2 +12.8 91 +14 +14 1018.5 987.5
06 17.08 ЮЗ 1 20 км ясно +15.8 +13.8 88 +16 +20 1018.3 987.5 +14.2
07 17.08 ЮЗ 1 20 км 3/0
[Ci fib]
+18.1 +15.2 83 +19 +26 1018.4 987.8
08 17.08 ЮЗ 1 30 км 4/0
[Ci sp]
+19.9 +15.3 75 +23 +33 комфорт 1018.5 988.1
09 17.08 ЮЗ 1 30 км 9/0
[Cs]
+23.0 +16.6 67 +28 +40 душно 1018.0 987.9
10 17.08 ЮЗ 2 30 км 9/0
[Cs]
+23.8 +16.8 65 +27 +40 жарко 1017.5 987.5
11 17.08 ЮЗ 2 30 км 5/1 600 м
[Cu hum Ci sp]
+24.4 +15.8 59 +28 +40 душно 1017.4 987.5
12 17.08 ЮЗ 2 40 км 4/1 600 м
[Cu hum Ci sp]
+25.7 +14.8 51 +28 +40 жарко 1016.8 987.0
13 17.08 ЮЗ 2 50 км 4/1 600 м
[Cu hum Ci sp]
+25.1 +15.4 55 +28 +38 жарко 1016.6 986.8
14 17.08 ЮЗ 4 50 км 3/1 600 м
[Cu hum Ci sp]
+26.6 +13.7 45 +29 +34 жарко 1016.2 986.5
15 17.08 Ю 1 50 км 3/0
[Ci sp]
+27.1 +13.8 44 +29 +35 жарко 1015.8 986.2
16 17.08 Ю 1 50 км 4/0
[Ci sp]
+26.5 +13.0 43 +28 +30 жарко 1015.7 986.0
17 17.08 Ю 1 50 км 3/0
[Ci sp]
+23.8 +14.3 55 +26 +27 жарко 1015.4 985.5
18 17.08 Ю 1 30 км 3/0
[Ci sp]
+21.7 +14.6 64 +25 +25 комфорт 1015.7 985.6 +27.5
19 17.08 Ю 1 20 км 1/0
[Ci fib]
+20.7 +14.3 67 +25 +25 комфорт 1016.0 985.7
20 17.08 Ю 2 20 км ясно +20.2 +12.8 62 +23 +23 комфорт 1015.9 985.6
21 17.08 Ю 2 20 км ясно +19.8 +13.5 67 +22 +22 комфорт 1016.0 985.6
00 18.08 Ю 2 20 км 3/0
[Ci fib]
+19.4 +11.7 61 +21 +21 комфорт 1016.0 985.6
03 18.08 ЮЗ 1 20 км 6/3 600 м
[Sc Ci sp]
+17.4 +12.0 71 +18 +18 1015.5 984.9
04 18.08 ЮЗ 2 40 км 8/4 600 м
[Sc Ac trans Ci fib]
+16.6 +12.2 75 +17 +17 1015.6 984.9
05 18.08 ЮЗ 2 40 км 9/9 600 м
[Sc]
+17.4 +12.4 72 +18 +18 1015.5 984.9
06 18.08 ЮЗ 2 40 км 9/9 600 м
[Sc]
+17.5 +13.7 78 +18 +18 1015.9 985.3 +16.4
07 18.08 ЮЗ 2 50 км 6/5 600 м
[Sc Ci sp]
+18.6 +14.7 78 +20 +23 1015.9 985.4
08 18.08 ЮЗ 2 50 км 4/1 600 м
[Sc Ac trans Ci sp]
+20.5 +15.0 71 +24 +31 комфорт 1016.0 985.7
09 18.08 Ю 1 50 км 3/0
[Ac trans Ci sp]
+23.4 +16.3 64 +28 +41 душно 1015.8 985.8
10 18.08 ЮЗ 2 50 км 1/0
[Ci sp]
+26.6 +17.0 56 +31 +45 душно 1015.4 985.8
11 18.08 ЮЗ 2 60 км ясно +27.7 +16.2 50 +31 +46 душно 1015.3 985.8
12 18.08 ЮЗ 2 60 км ясно +28.8 +17.9 52 +33 +48 очень
душно
1015.0 985.6
13 18.08 Ю 2 60 км ясно +29.7 +15.4 42 +32 +44 душно 1014.7 985.4
14 18.08 ЮЗ 2 70 км ясно +30.6 +17.5 45 +35 +43 очень
душно
1014.3 985.1
15 18.08 ЮЗ 2 60 км ясно +30.4 +15.6 41 +33 +38 душно 1014.2 985.0
16 18.08 ЮЗ 2 50 км 1/0
[Ci fib]
+29.6 +16.8 46 +33 +35 душно 1014.2 984.9
17 18.08 ЮЗ 1 50 км 1/0
[Ci fib]
+28.4 +17.9 53 +33 +33 очень
душно
1014.2 984.8
18 18.08 Ю 1 40 км 1/0
[Ci sp]
+25.7 +17.1 59 +30 +30 душно 1014.2 984.5 +30.6
19 18.08 Ю 1 40 км 1/0
[Ci sp]
+24.2 +16.6 63 +28 +28 душно 1014.6 984.8
20 18.08 Ю 1 30 км 3/0
[Ci sp]
+24.0 +16.4 62 +27 +27 жарко 1014.7 984.8
21 18.08 Ю 2 30 км 3/0
[Ci sp]
+23.2 +16.5 66 +28 +28 душно 1014.6 984.7
00 19.08 ЮЗ 2 30 км 3/0
[Ci sp]
+21.0 +16.0 73 +25 +25 комфорт 1015.0 984.8
03 19.08 ЮЗ 3 30 км 3/0
[Ci sp]
+19.6 +14.6 73 +22 +22 комфорт 1015.2 984.9
04 19.08 ЮЗ 2 40 км 3/0
[Ci sp]
+19.0 +15.0 78 +21 +21 комфорт 1015.4 985.0
05 19.08 ЮЗ 2 40 км 1/0
[Ci sp]
+19.0 +15.5 80 +21 +21 комфорт 1015.7 985.3
06 19.08 ЮЗ 2 30 км ясно +19.4 +15.6 79 +22 +24 комфорт 1016.2 985.8 +18.5
07 19.08 ЮЗ 3 30 км ясно +21.8 +16.4 71 +26 +30 душно 1015.9 985.8
08 19.08 ЮЗ 2 40 км ясно +23.5 +16.8 66 +27 +36 душно 1016.2 986.2
09 19.08 ЮЗ 2 50 км ясно +26.8 +18.7 61 +32 +44 очень
душно
1015.9 986.3
10 19.08 З 2 50 км ясно +28.5 +17.2 50 +32 +47 душно 1016.1 986.6
11 19.08 З 1 50 км 1/0
[Ci fib]
+29.9 +18.7 51 +35 +52 опасность
солнечного
удара
1015.8 986.5
12 19.08 З 2 50 км 1/0
[Ci fib]
+30.4 +18.8 50 +36 +49 очень
душно
1015.7 986.5
13 19.08 З 1 50 км 1/0
[Ci fib]
+31.1 +18.6 47 +36 +49 очень
душно
1015.9 986.7
14 19.08 ЮЗ 3 50 км 1/0
[Ci fib]
+32.0 +16.7 40 +35 +42 очень
душно
1015.5 986.4
15 19.08 З 2 50 км 1/0
[Ci fib]
+31.8 +17.0 41 +35 +40 очень
душно
1015.5 986.4
16 19.08 Ю 1 40 км 1/0
[Ci fib]
+31.8 +17.0 41 +35 +38 очень
душно
1015.2 986.1
17 19.08 З 1 40 км 1/0
[Ci sp]
+30.8 +16.8 43 +34 +35 очень
душно
1015.3 986.1
18 19.08 СЗ 2 30 км 3/0
[Ci sp]
+28.4 +17.6 52 +33 +33 очень
душно
1015.6 986.1 +32.5
19 19.08 В 2 30 км 1/0
[Ci fib]
+26.3 +18.0 60 +31 +31 душно 1016.1 986.4
20 19.08 В 2 25 км ясно +25.9 +17.7 61 +30 +30 душно 1016.6 986.9
21 19.08 СВ 2 30 км ясно +26.4 +17.3 57 +30 +30 душно 1017.0 987.3
00 20.08 СЗ 2 30 км ясно +23.3 +18.7 75 +29 +29 душно 1017.3 987.3
03 20.08 СЗ 4 20 км ясно +19.5 +18.1 92 +22 +22 комфорт 1018.1 987.7
04 20.08 СЗ 4 15 км 1/0
[Ci sp]
+19.4 +17.7 90 +22 +22 комфорт 1018.2 987.8
05 20.08 СЗ 3 15 км ясно +19.4 +17.7 90 +22 +22 комфорт 1018.5 988.1
06 20.08 СЗ 4 20 км ясно +19.9 +18.2 90 +23 +25 комфорт 1018.7 988.3 +19.2
07 20.08 С 2 20 км ясно +21.7 +18.7 83 +27 +32 душно 1018.7 988.5
08 20.08 С 2 30 км ясно +23.1 +19.6 81 +30 +39 очень
душно
1018.6 988.6
09 20.08 С 2 30 км ясно +25.4 +19.6 70 +31 +43 очень
душно
1018.4 988.6
10 20.08 СВ 2 40 км ясно +28.0 +18.9 58 +33 +48 очень
душно
1018.1 988.6
11 20.08 С 1 40 км ясно +29.7 +17.9 49 +34 +52 опасность
солнечного
удара
1017.8 988.4
12 20.08 СВ 2 40 км ясно +31.1 +18.8 48 +36 +50 очень
душно
1017.4 988.2
13 20.08 В 2 40 км ясно +31.8 +18.2 44 +36 +48 очень
душно
1017.1 987.9
14 20.08 ЮВ 1 40 км ясно +32.9 +16.9 38 +36 +46 очень
душно
1017.0 987.9
15 20.08 ЮВ 3 40 км ясно +32.7 +17.6 41 +37 +41 очень
душно
1016.8 987.7
16 20.08 В 4 40 км ясно +32.2 +17.5 42 +36 +38 очень
душно
1016.5 987.4
17 20.08 В 3 30 км ясно +31.0 +18.5 47 +36 +36 очень
душно
1016.4 987.2
18 20.08 ЮВ 4 20 км ясно +28.5 +17.9 53 +33 +33 очень
душно
1016.7 987.2 +33.0
19 20.08 ЮВ 4 20 км ясно +26.6 +17.1 56 +31 +31 душно 1017.2 987.5
20 20.08 ЮВ 4 20 км ясно +25.9 +16.8 57 +30 +30 душно 1017.4 987.6
21 20.08 ЮВ 5 20 км ясно +25.8 +16.9 58 +30 +30 душно 1017.2 987.4
00 21.08 Ю 1 20 км ясно +26.2 +13.9 47 +28 +28 жарко 1016.5 986.8
03 21.08 СВ 2 15 км ясно +21.6 +18.0 80 +26 +26 душно 1017.1 986.9
04 21.08 СЗ 7 200 м туман ?/? +18.8 +18.6 99 +20 +20 1018.6 988.1
05 21.08 С 5 10 км в посл. час туман ясно +19.1 +17.4 90 +21 +21 комфорт 1019.5 989.0
06 21.08 С 5 30 км {туман} 3/1 600 м
[Cu med, cong Ac trans Cc]
+20.3 +16.9 81 +23 +24 комфорт 1020.7 990.3 +18.3
07 21.08 СВ 7 50 км 4/1 600 м
[Cu med, cong Ac trans Cc]
+21.5 +16.2 72 +25 +26 комфорт 1021.2 990.9
08 21.08 С 7 50 км 6/3 600 м
[Cu hum Ac trans]
+21.4 +14.9 66 +24 +26 комфорт 1022.2 991.8
09 21.08 СВ 6 50 км 5/3 600 м
[Cu hum Ac trans]
+22.9 +15.0 61 +27 +27 душно 1022.9 992.0
10 21.08 СВ 5 50 км 3/3 600 м
[Cu hum Ac trans]
+23.2 +15.1 60 +27 +33 душно 1022.5 992.3
11 21.08 СВ 6 50 км 3/1 600 м
[Cu hum Ac trans]
+24.3 +15.3 57 +27 +32 жарко 1022.5 992.4
12 21.08 СВ 5 50 км 3/1 600 м
[Cu hum Ac trans]
+25.0 +15.2 55 +28 +34 жарко 1022.1 992.1
13 21.08 С 6 50 км 4/0
[Ac trans Ci sp]
+24.5 +14.8 55 +27 +31 жарко 1022.2 992.1
14 21.08 С 5 50 км 4/1 600 м
[Cu hum Ac trans]
+24.9 +14.9 54 +28 +31 жарко 1022.1 992.1
15 21.08 С 5 50 км 3/0
[Ac trans]
+24.7 +15.0 55 +28 +30 душно 1022.3 992.3
16 21.08 С 6 50 км 3/0
[Ac trans]
+23.2 +14.9 60 +27 +28 душно 1022.7 992.5
17 21.08 С 6 35 км 5/0
[Ac trans]
+20.9 +14.5 67 +24 +24 комфорт 1023.0 992.6
18 21.08 С 6 25 км 5/0
[Ac trans]
+18.9 +13.7 72 +19 +19 1023.8 993.1 +25.7
19 21.08 С 6 20 км 4/0
[Ac trans]
+18.2 +13.4 74 +18 +18 1024.6 993.8
20 21.08 С 5 20 км ясно +17.3 +13.2 77 +17 +17 1024.7 993.8
21 21.08 СЗ 5 20 км ясно +16.7 +13.2 80 +16 +16 1024.9 994.0
00 22.08 СЗ 4 н/о н/о +16.0 +13.2 83 +15 +15 1025.5 993.8
03 22.08 СЗ 4 20 км 4/0
[Ac trans]
+15.5 +13.0 85 +15 +15 1024.6 993.5
04 22.08 С 4 20 км 3/0
[Ac trans]
+15.2 +13.3 88 +14 +14 1024.6 993.5
05 22.08 СЗ 3 20 км 4/0
[Ac trans Ci sp]
+15.0 +13.3 90 +14 +15 1024.9 993.8
06 22.08 С 4 30 км 4/0
[Ac trans Ci sp]
+15.7 +13.7 88 +15 +16 1025.3 994.2 +14.8
07 22.08 С 2 30 км 3/0
[Ac trans Ci sp]
+17.3 +13.8 80 +18 +22 1025.2 994.3
08 22.08 СЗ 2 30 км 3/0
[Ac trans]
+19.5 +14.7 74 +22 +29 комфорт 1024.9 994.3
09 22.08 С 1 40 км 3/0
[Ac trans]
+21.0 +15.0 69 +25 +37 комфорт 1024.8 994.3
10 22.08 СЗ 1 40 км 3/0
[Ac trans Ci sp]
+22.2 +14.9 63 +26 +39 душно 1024.7 994.3
11 22.08 В 2 40 км 3/0
[Ci sp]
+24.1 +14.9 56 +27 +41 жарко 1023.9 993.8
12 22.08 СВ 2 40 км 3/0
[Ci sp]
+25.2 +15.6 55 +28 +41 жарко 1023.7 993.7
13 22.08 СВ 2 50 км 4/0
[Ci sp]
+26.0 +16.2 55 +29 +40 душно 1022.9 993.0
14 22.08 СВ 2 50 км 3/0
[Ci sp]
+26.7 +16.6 54 +30 +38 душно 1022.3 992.5
15 22.08 СЗ 4 50 км 3/0
[Ci sp]
+26.0 +17.6 60 +30 +33 душно 1022.1 992.2
16 22.08 СЗ 4 50 км 3/0
[Ci sp]
+25.2 +17.5 62 +29 +30 душно 1022.2 992.2
17 22.08 С 4 40 км 3/0
[Ci sp]
+23.6 +17.7 70 +28 +28 душно 1022.3 992.2
18 22.08 СЗ 3 20 км 3/0
[Ci sp]
+22.0 +18.1 79 +27 +27 душно 1022.5 992.2 +26.7
19 22.08 СЗ 3 20 км 3/0
[Ci sp]
+20.7 +17.3 81 +25 +25 комфорт 1022.9 992.5
20 22.08 СЗ 5 20 км 3/0
[Ci sp]
+20.0 +16.9 82 +23 +23 комфорт 1023.1 992.6
21 22.08 СЗ 5 20 км ясно +19.9 +16.5 81 +22 +22 комфорт 1023.1 992.6

 

Местоположение метеостанции Било-Гора (Хорватия): широта 45.88 долгота 17.20 высота над уровнем моря 263 м.

В архиве по умолчанию представлена погода на Било-Горе за последнюю неделю. Архивные данные за месяц целиком и за предыдущие месяцы, начиная с января 2011 года, Вы можете получить, выбрав интересующий диапазон дат из раскрывающегося списка и нажав кнопку "Ввод!".


*Определитесь, кто Вы:
робот инопланетянин человек

Внимание! Время в таблицах - всемирное. Для получения местного времени необходимо прибавить поправку, которая равна 1 ч.

Смотрите также архив погоды в соседних городах и на ближайших метеорологических станциях:

Погода в Даруваре (Хорватия) (31 км)
Погода в Бьеловаре (Хорватия) (32 км)
Погода в Крижевцах (Хорватия) (53 км)
Погода в Надьканиже (Венгрия) (66 км)
Погода в Капошваре (Венгрия) (74 км)
Погода в Сисаке (Хорватия) (77 км)
Погода в Вараздине (Хорватия) (79 км)
Погода в Пече (Венгрия) (81 км)
Погода в Шармеллеке (Венгрия) (89 км)
Погода в Загреб аэропорту (Хорватия) (89 км)

Пояснения к столбцам:

Ветер - указаны скорость ветра в м/с - средняя за 10 мин, порывы в срок и между сроками (в фигурных скобках) и направление, откуда дует ветер: С - северный, СВ - северо-восточный, В - восточный, ЮВ - юго-восточный, Ю - южный, ЮЗ - юго-западный, З - западный, СЗ - северо-западный.
Видимость - горизонтальная дальность видимости в метрах или километрах. При видимости от 1 до 10 км при отсутствии осадков обычно наблюдается дымка, при ухудшении видимости до 1 км и менее - туман. В сухую погоду видимость может ухудшаться дымом, пылью или мглою.
Явления - указаны атмосферные явления, наблюдавшиеся в срок или в последний час перед сроком; фигурными скобками обозначены явления, наблюдавшиеся между сроками (за 1-3 часа до срока); квадратными скобками обозначены град или гололедные отложения с указанием их диаметра в мм.
Облачность - указаны через наклонную черту общая и нижняя облачность в баллах и высота нижней границы облаков в метрах; квадратными скобками обозначены формы облаков: Ci - перистые, Cs - перисто-слоистые, Cc - перисто-кучевые, Ac - высококучевые, As - высокослоистые, Sc - слоисто-кучевые, Ns - слоисто-дождевые, Cu - кучевые, Cb - кучево-дождевые. Подробнее классификацию облаков см. в Атласе облаков (PDF).
T - Температура воздуха - температура, измеренная на высоте 2 м над землей.
Td - Температура точки росы - температура, при понижении до которой содержащийся в воздухе водяной пар достигнет насыщения.
f - Относительная влажность воздуха - влажноcть воздуха, измеренная на высоте 2 м над землей.
Te - Эффективная температура - температура, которую ощущает одетый по сезону человек в тени. Характеристика душности погоды. При расчете учитывается влияние влажности воздуха и скорости ветра на теплоощущения человека.
Tes - Эффективная температура на солнце - температура, которую ощущает человек, с поправкой на солнечный нагрев. Характеристика знойности погоды. Зависит от высоты солнца над горизонтом, облачности и скорости ветра. Ночью, в пасмурную погоду, а также при ветре 12 м/с и более поправка равна нулю.
P - Атмосферное давление - приведенное к уровню моря атмосферное давление.
Po - Атмосферное давление - измеренное на уровне метеостанции атмосферное давление.
Tmin - Минимальная температура - минимум температуры воздуха на высоте 2 м над землей.
Tmax - Максимальная температура - максимум температуры воздуха на высоте 2 м над землей.
R - Количество осадков - Количество выпавших осадков за период времени, мм. При наведении курсора мыши на число - период времени, за который выпало указанное количество осадков.
R24 - Количество осадков - Количество выпавших осадков за 24 часа, мм.
S - Снежный покров - Высота снежного покрова, см. При наведении курсора мыши на число - состояние снежного покрова и степень покрытия местности в баллах.